Probability
0 0 3 3 3 0 0 3 0 0 0 0 0 0 0 0 0 0 0 0 0 0 0 0 0 0 0 0 3 3 3 3 0 0 0 0 0 0 0 0 0 0 0
3 0 0 3 3 3 0 0 3 0 0 0 0 0 0 0 0 0 0 0 0 0 0 0 0 0 0 3 3 3 0 0 0 0 0 0 0 0 0 0 0 0 0
0 0 3 3 3 3 0 3 3 0 0 0 0 0 0 0 0 0 0 0 0 0 0 0 0 0 0 3 3 3 3 0 0 0 0 0 0 0 0 0 0 0 0
3 3 3 3 3 0 0 0 3 0 0 0 0 0 0 0 0 0 0 0 0 0 0 0 0 0 0 0 0 3 3 3 0 0 0 0 0 0 0 0 0 0 0
0 3 0 0 0 0 0 0 0 0 0 0 0 0 0 0 0 0 0 0 0 0 0 0 0 0 0 0 0 3 3 3 0 0 0 0 0 0 0 0 0 0 0
0 0 0 0 0 0 0 0 0 0 0 0 0 0 0 0 0 0 0 0 0 0 0 0 0 0 0 0 0 0 3 3 0 0 0 0 0 0 0 0 0 0 0
0 0 0 0 0 0 0 0 0 0 0 0 0 0 0 0 0 0 0 0 0 0 0 0 0 0 0 0 0 0 0 0 3 0 0 0 0 0 0 0 0 0 0
0 0 0 0 0 0 0 0 0 0 0 0 0 0 0 0 0 0 0 0 0 0 0 0 0 0 0 0 0 0 0 0 0 0 0 0 0 0 0 0 0 0 0
0 0 0 0 0 0 0 0 0 0 0 0 0 0 0 0 0 0 0 0 0 0 0 0 0 0 0 0 0 0 0 0 0 0 0 0 0 0 0 0 0 0 0
0 0 0 0 0 0 0 0 0 0 0 0 0 0 0 0 0 0 0 0 0 0 0 0 0 0 0 0 0 0 0 0 0 0 0 0 0 0 0 0 0 0 0
0 0 0 0 0 0 0 0 0 0 0 0 0 0 0 0 0 0 0 0 0 0 0 0 0 0 0 0 0 0 0 0 0 0 0 0 0 0 0 0 0 0 0
0 0 0 0 0 0 0 0 0 0 0 0 0 0 0 0 0 0 0 0 0 0 0 0 0 0 0 0 0 0 0 0 0 0 0 0 0 0 0 0 0 0 0
0 0 0 0 0 0 0 0 0 0 0 0 0 0 0 0 0 0 0 0 0 0 0 0 0 0 0 0 0 0 0 0 0 0 0 0 0 0 0 0 0 0 0
0 0 0 0 0 0 0 0 0 0 0 0 0 0 0 0 0 0 0 0 0 0 0 0 0 0 0 0 0 0 0 0 0 0 0 0 0 0 0 0 0 0 0
0 0 0 0 0 0 0 0 0 0 0 0 0 0 0 0 0 0 0 0 0 0 0 0 0 0 0 0 0 0 0 0 0 0 0 0 0 0 0 0 0 0 0
0 0 0 0 0 0 0 0 0 0 0 0 0 0 0 0 0 0 0 0 0 0 0 0 0 0 0 0 0 0 0 0 0 0 0 0 0 0 0 0 0 0 0
0 0 0 0 0 0 0 0 0 0 0 0 0 0 0 0 0 0 0 0 0 0 0 0 0 0 0 0 0 0 0 0 0 0 0 0 0 0 0 0 0 0 0
0 0 0 0 0 0 0 0 0 0 0 0 0 0 0 0 0 0 0 0 0 0 0 0 0 0 0 0 0 0 0 0 0 0 0 0 0 0 0 0 0 0 0
0 0 0 0 0 0 0 0 0 0 0 0 0 0 0 0 0 0 0 0 0 0 0 0 0 0 0 0 0 0 0 0 0 0 0 0 0 0 0 0 0 0 0
0 0 0 0 0 0 0 0 0 0 0 0 0 0 0 0 0 0 0 0 0 0 0 0 0 0 0 0 0 0 0 0 0 0 0 0 0 0 0 0 0 0 0
0 0 0 0 0 0 0 0 0 0 0 0 0 0 0 0 0 0 0 0 0 0 0 0 0 0 0 0 0 0 0 0 0 0 0 0 0 0 0 0 0 0 0
0 0 0 0 0 0 0 0 0 0 0 0 0 0 0 0 0 0 0 0 0 0 0 0 0 0 0 0 0 0 0 0 0 0 0 0 0 0 0 0 0 0 0
0 0 0 0 0 0 0 0 0 0 0 0 0 0 0 0 0 0 0 0 0 0 0 0 0 0 0 0 0 0 0 0 0 0 0 0 0 0 0 0 0 0 0
0 0 0 0 0 0 0 0 0 0 0 0 0 0 0 0 0 0 0 0 0 0 0 0 0 0 0 0 0 0 0 0 0 0 0 0 0 0 0 0 0 0 0
0 0 0 0 0 0 0 0 0 0 0 0 0 0 0 0 0 0 0 0 0 0 0 0 0 0 0 0 0 0 0 0 0 0 0 0 0 0 0 0 0 0 0
0 0 0 0 0 0 0 0 0 0 0 0 0 0 0 0 0 0 0 0 0 0 0 0 0 0 0 0 0 0 0 0 0 0 0 0 0 0 0 0 0 0 0
Height
5777 5779 5782 5784 5787 5789 5791 5793 5795 5797 5799 5801 5803 5804 5806 5808 5809 5811 5812 5814 5815 5816 5817 5818 5819 5819 5820 5821 5821 5821 5822 5822 5822 5821 5821 5821 5820 5820 5820 5819 5818 5817 5816
5768 5771 5773 5776 5778 5781 5783 5786 5788 5790 5792 5794 5796 5798 5799 5801 5803 5804 5806 5807 5809 5810 5811 5812 5813 5814 5815 5816 5816 5817 5817 5817 5817 5817 5816 5816 5816 5816 5815 5815 5814 5813 5812
5758 5761 5764 5767 5770 5772 5774 5777 5780 5783 5785 5787 5789 5791 5792 5794 5796 5797 5799 5800 5802 5803 5805 5806 5807 5808 5809 5810 5811 5811 5812 5812 5812 5812 5812 5811 5811 5811 5811 5810 5809 5808 5807
5748 5751 5755 5758 5760 5763 5766 5769 5772 5775 5777 5779 5781 5783 5785 5787 5788 5790 5791 5793 5794 5796 5798 5799 5801 5802 5803 5804 5805 5805 5806 5806 5807 5807 5807 5807 5806 5806 5806 5805 5805 5804 5803
5738 5741 5745 5748 5751 5754 5757 5760 5763 5766 5769 5771 5773 5775 5777 5779 5781 5782 5784 5785 5787 5789 5790 5792 5794 5795 5796 5797 5798 5799 5799 5800 5800 5801 5801 5801 5801 5801 5800 5800 5799 5798 5797
5727 5731 5734 5737 5741 5744 5748 5751 5754 5757 5760 5763 5765 5767 5769 5771 5772 5774 5776 5777 5779 5781 5783 5784 5786 5788 5789 5790 5791 5792 5793 5793 5794 5794 5795 5795 5795 5795 5794 5794 5793 5792 5792
5716 5720 5723 5727 5730 5734 5738 5741 5744 5748 5751 5754 5756 5758 5760 5762 5764 5766 5767 5769 5771 5773 5775 5776 5778 5780 5781 5782 5784 5785 5785 5786 5787 5787 5787 5788 5788 5788 5788 5788 5787 5786 5786
5706 5709 5713 5716 5720 5723 5727 5731 5735 5739 5741 5744 5747 5749 5751 5754 5755 5757 5759 5761 5763 5764 5766 5768 5770 5772 5773 5774 5776 5777 5778 5778 5779 5780 5780 5781 5781 5781 5781 5781 5781 5780 5779
5695 5699 5703 5707 5711 5714 5717 5721 5725 5729 5732 5735 5737 5740 5742 5745 5747 5748 5750 5752 5754 5756 5757 5759 5761 5763 5764 5766 5767 5769 5770 5770 5771 5771 5772 5773 5773 5773 5773 5773 5773 5773 5772
5685 5689 5693 5697 5701 5704 5707 5711 5714 5718 5721 5724 5727 5730 5733 5735 5738 5740 5741 5743 5745 5746 5748 5750 5751 5753 5755 5756 5758 5760 5760 5761 5762 5763 5763 5764 5764 5765 5765 5765 5765 5764 5764
5674 5678 5683 5687 5691 5694 5697 5700 5704 5707 5711 5714 5717 5720 5723 5725 5727 5729 5732 5734 5735 5737 5738 5740 5742 5743 5745 5746 5748 5749 5751 5751 5752 5753 5754 5754 5755 5756 5756 5756 5756 5756 5755
5664 5668 5672 5676 5680 5684 5687 5690 5693 5697 5700 5704 5707 5710 5712 5715 5717 5719 5721 5723 5725 5727 5728 5730 5731 5733 5734 5736 5737 5739 5740 5741 5742 5742 5743 5744 5745 5746 5746 5746 5746 5746 5746
5653 5657 5661 5665 5669 5673 5676 5679 5682 5686 5690 5693 5697 5699 5702 5704 5706 5708 5710 5712 5714 5716 5717 5719 5721 5722 5724 5725 5726 5728 5729 5730 5731 5731 5732 5733 5733 5734 5735 5736 5736 5736 5736
5642 5646 5650 5654 5658 5662 5665 5669 5672 5675 5679 5682 5686 5688 5691 5693 5695 5697 5699 5701 5703 5705 5707 5708 5709 5711 5712 5714 5715 5717 5718 5719 5720 5721 5721 5721 5722 5723 5724 5724 5725 5725 5726
5631 5634 5638 5642 5646 5650 5654 5657 5661 5664 5667 5671 5674 5677 5679 5682 5684 5686 5688 5690 5692 5694 5696 5697 5698 5699 5701 5702 5704 5705 5707 5708 5708 5709 5710 5710 5711 5712 5712 5713 5713 5714 5714
5619 5623 5626 5630 5634 5638 5642 5645 5649 5653 5656 5659 5662 5665 5668 5670 5672 5674 5676 5678 5679 5681 5683 5685 5686 5687 5688 5690 5692 5693 5694 5696 5697 5698 5698 5699 5699 5700 5701 5701 5702 5702 5703
5607 5611 5614 5618 5622 5626 5629 5633 5637 5640 5644 5647 5650 5653 5656 5658 5660 5662 5664 5666 5667 5669 5671 5672 5673 5674 5676 5678 5679 5680 5682 5683 5685 5686 5686 5687 5688 5688 5689 5689 5689 5690 5690
5595 5598 5602 5606 5610 5614 5617 5621 5625 5628 5631 5635 5638 5641 5644 5646 5648 5650 5652 5653 5655 5656 5658 5660 5661 5662 5664 5665 5666 5668 5669 5670 5672 5673 5674 5675 5676 5676 5676 5677 5677 5677 5678
5583 5586 5589 5594 5598 5601 5605 5609 5612 5615 5619 5623 5626 5629 5631 5634 5636 5638 5639 5641 5643 5644 5645 5647 5649 5650 5651 5652 5653 5655 5656 5657 5659 5660 5661 5662 5663 5663 5664 5664 5664 5665 5665
5571 5574 5577 5581 5585 5588 5592 5596 5599 5603 5607 5610 5613 5616 5619 5621 5623 5625 5627 5629 5630 5632 5633 5634 5636 5638 5639 5640 5640 5642 5643 5644 5645 5646 5647 5648 5649 5650 5651 5651 5652 5652 5652
5558 5562 5565 5568 5572 5576 5580 5584 5587 5591 5594 5598 5601 5603 5606 5608 5610 5612 5614 5616 5618 5619 5621 5622 5624 5625 5626 5627 5628 5628 5630 5631 5632 5632 5633 5635 5636 5637 5637 5637 5638 5638 5639
5547 5550 5554 5557 5560 5564 5568 5571 5575 5578 5582 5585 5588 5591 5593 5595 5598 5600 5602 5603 5605 5607 5608 5610 5611 5612 5613 5614 5615 5615 5617 5618 5620 5621 5620 5621 5622 5622 5623 5623 5624 5624 5624
5535 5538 5542 5545 5548 5552 5555 5559 5562 5565 5569 5572 5576 5578 5581 5583 5585 5587 5589 5590 5592 5593 5595 5597 5599 5600 5601 5602 5602 5603 5604 5605 5606 5607 5606 5608 5608 5608 5608 5609 5609 5610 5610
5524 5527 5530 5533 5536 5539 5542 5546 5549 5552 5555 5559 5562 5565 5568 5570 5572 5574 5576 5577 5579 5581 5582 5584 5586 5587 5588 5588 5589 5590 5591 5592 5593 5593 5593 5594 5594 5594 5594 5595 5595 5595 5595
5513 5515 5518 5521 5524 5526 5529 5532 5535 5538 5542 5545 5548 5551 5554 5557 5559 5561 5563 5565 5566 5568 5569 5571 5572 5573 5574 5575 5575 5576 5577 5578 5580 5580 5580 5580 5581 5581 5581 5581 5581 5581 5581
5502 5504 5506 5509 5511 5514 5516 5519 5521 5525 5529 5533 5536 5538 5541 5543 5545 5547 5550 5552 5554 5555 5557 5558 5559 5560 5561 5562 5563 5563 5564 5565 5566 5567 5567 5567 5567 5566 5567 5568 5567 5566 5566
Wind_Speed
37 36 36 35 36 35 34 33 32 31 30 29 29 28 28 28 28 27 27 26 25 25 23 22 22 21 20 20 20 20 20 19 19 18 18 18 17 17 17 17 17 17 17
39 38 38 38 38 38 37 35 34 33 32 31 30 30 29 30 30 29 29 28 27 26 25 24 23 23 23 22 22 21 21 21 21 20 20 19 19 18 18 18 18 18 18
41 41 40 40 40 39 38 36 35 34 33 32 32 32 31 30 30 31 31 30 30 28 27 26 25 24 25 24 24 24 23 23 23 22 21 20 20 20 20 20 19 19 19
41 40 40 41 41 41 39 37 37 35 34 33 33 32 32 32 31 31 31 32 32 30 29 28 27 26 25 25 25 25 25 25 24 24 24 23 22 21 21 22 21 21 21
43 41 41 42 42 41 41 39 38 37 36 35 34 33 33 33 33 33 32 32 32 32 31 30 29 28 27 27 26 25 26 26 25 25 25 24 24 23 23 23 23 23 23
44 43 43 43 44 43 42 41 40 38 37 36 35 35 34 34 34 34 33 32 32 32 33 33 32 31 29 28 27 27 27 27 27 27 26 26 25 25 25 24 24 24 24
43 43 44 44 44 44 44 43 41 39 39 38 36 36 35 35 34 35 35 34 34 33 34 34 34 33 32 31 30 29 28 28 28 28 28 27 27 27 27 26 25 25 25
43 41 41 43 44 44 44 44 43 41 40 39 38 37 36 36 36 35 36 36 36 35 35 35 35 35 34 33 32 32 31 30 30 30 30 29 29 29 29 28 28 27 27
44 43 42 41 42 42 43 43 43 42 41 40 39 39 38 38 37 37 37 37 37 37 37 37 37 36 36 35 34 34 34 33 33 33 32 32 32 31 30 30 30 30 29
45 43 43 43 42 42 42 43 44 44 42 41 40 40 39 39 38 39 38 38 38 38 39 39 38 38 38 38 36 36 36 37 36 36 35 35 34 33 32 32 32 31 32
45 44 43 44 43 42 41 42 44 44 43 41 41 41 40 40 40 40 40 40 40 40 40 40 40 40 39 39 39 38 38 39 39 39 38 38 37 36 35 34 34 34 34
46 45 44 44 43 43 43 42 43 43 43 43 42 41 40 41 41 41 41 41 41 41 41 41 40 40 40 40 40 39 39 39 40 40 40 40 40 40 39 38 37 37 36
47 46 45 44 44 43 43 42 42 43 43 43 43 42 42 42 42 42 42 42 42 41 41 41 41 41 41 41 41 41 40 40 40 40 40 40 40 41 41 41 40 40 39
46 46 45 45 44 44 44 43 42 43 43 43 43 43 43 44 44 44 43 43 43 43 42 42 43 43 43 42 42 42 42 42 42 41 40 40 40 41 42 42 42 42 41
46 45 44 45 46 46 45 45 44 44 44 44 43 43 44 43 44 44 44 44 45 44 44 44 45 45 45 44 43 43 43 43 43 43 43 41 41 40 41 42 43 43 43
48 46 45 45 46 47 47 47 46 46 46 45 44 44 45 44 44 45 45 45 45 45 46 46 47 47 46 45 45 45 44 44 44 44 44 43 42 42 42 43 43 44 44
48 47 46 47 47 47 48 48 47 47 48 47 45 44 45 45 46 45 46 46 46 46 47 47 48 48 49 48 46 46 46 45 45 45 45 45 45 45 45 45 45 45 45
48 48 47 47 47 47 48 48 48 47 48 48 47 46 46 46 46 46 47 46 47 47 47 47 47 48 48 48 47 46 46 46 46 46 46 46 46 47 47 47 46 46 46
47 47 46 47 47 48 49 49 48 48 47 47 47 47 46 46 46 46 47 47 47 47 47 47 48 48 47 48 48 47 48 48 48 47 48 47 47 48 48 48 47 47 47
47 47 46 47 47 48 48 48 47 47 48 48 47 47 46 46 46 46 46 46 47 47 47 48 48 48 48 48 48 48 48 48 48 48 49 48 49 49 49 49 48 48 47
47 48 47 47 47 48 49 48 47 47 47 48 47 46 46 46 46 46 47 48 48 48 48 48 48 48 48 49 49 48 48 48 48 49 48 48 49 50 50 49 49 49 48
45 46 47 48 47 48 49 48 47 48 48 48 47 47 48 48 48 48 48 49 48 47 47 48 48 48 48 48 48 48 48 47 47 48 48 48 48 49 50 50 49 49 50
42 43 45 46 47 49 49 49 49 48 49 48 48 48 48 49 50 49 48 49 48 47 47 46 47 47 48 48 49 48 47 47 47 47 48 47 47 48 49 49 49 49 49
40 42 44 45 46 47 49 49 49 49 50 49 49 49 49 49 49 49 48 48 48 47 46 46 46 46 47 48 49 48 47 47 46 47 48 48 48 48 48 49 49 50 50
40 41 42 44 45 47 48 49 49 48 49 49 48 49 49 50 49 48 47 47 47 46 47 47 47 47 48 48 49 48 48 47 47 47 47 48 48 49 48 48 48 49 50
40 41 42 43 45 46 48 49 49 49 49 48 47 47 47 48 47 47 47 46 46 46 47 48 48 48 48 49 49 49 49 49 48 47 47 48 49 49 49 49 49 49 50
Wind_Direction
239 240 242 243 243 242 241 242 243 245 245 245 245 244 245 246 248 248 248 249 250 251 252 254 255 256 257 260 262 262 263 263 264 267 270 272 274 276 278 281 284 287 289
239 240 242 243 243 241 241 242 244 244 245 245 245 244 245 246 247 249 248 248 250 251 252 253 254 256 257 260 262 263 263 263 263 267 270 271 271 273 276 279 283 285 287
240 241 241 242 242 242 241 241 243 244 245 246 246 245 246 246 248 248 249 248 247 249 250 252 254 256 258 259 262 262 263 263 264 266 269 271 272 273 275 278 281 283 284
240 240 241 241 241 240 241 241 242 243 244 246 247 248 248 248 248 248 248 247 247 248 248 251 253 254 257 259 262 262 261 262 263 264 266 268 271 273 275 277 280 282 282
241 240 240 240 239 239 240 241 242 244 244 246 248 249 248 248 248 247 248 247 247 248 248 249 252 254 255 257 260 261 262 262 261 263 265 267 270 272 275 278 280 280 282
241 240 240 241 241 240 241 242 243 244 245 246 248 248 248 248 248 248 248 248 248 249 250 250 252 254 254 255 258 260 261 262 262 264 265 266 269 270 273 277 279 279 280
240 240 240 241 242 242 242 242 243 244 245 246 247 248 247 248 248 247 247 248 248 250 251 252 253 254 255 256 256 258 259 260 262 264 265 266 268 271 272 275 278 279 280
240 240 241 241 242 242 241 242 243 244 245 247 247 247 248 249 249 248 248 248 249 250 251 253 253 254 256 257 256 256 258 260 261 263 265 266 268 270 272 273 276 278 280
241 241 242 242 242 243 243 242 242 243 245 247 247 248 248 249 250 250 249 249 250 251 252 253 254 254 256 257 258 259 259 259 260 262 264 266 268 270 271 272 274 276 277
241 242 243 242 243 243 242 242 243 243 243 244 246 247 249 249 250 250 250 251 251 253 253 254 256 255 256 257 258 259 260 260 261 262 263 264 266 268 270 271 273 275 277
240 242 242 242 242 243 244 243 242 242 242 243 245 247 248 249 250 251 251 252 252 254 254 255 256 256 257 258 258 259 259 260 261 263 263 264 265 266 268 270 271 274 276
240 242 242 243 243 243 244 244 243 242 243 243 244 246 248 250 251 251 252 252 253 254 254 254 255 256 256 258 259 259 260 260 262 262 263 264 265 265 267 269 271 273 275
240 242 243 244 244 244 244 244 243 242 242 243 245 247 249 251 252 251 252 252 252 254 255 255 255 255 255 257 257 258 260 261 262 263 264 265 265 265 266 268 270 272 273
240 241 242 243 243 243 243 244 245 243 243 243 245 248 250 251 252 251 252 253 253 255 256 256 255 254 255 256 257 258 259 261 262 263 265 265 265 266 265 265 267 269 271
241 242 241 241 242 242 242 243 245 245 243 244 247 249 251 252 252 252 253 255 255 255 256 257 255 255 255 255 257 258 259 260 261 263 264 265 265 266 265 265 266 268 270
242 242 241 241 243 243 243 244 245 246 245 247 248 250 251 251 253 253 254 256 257 257 258 259 257 256 256 256 257 258 258 259 260 262 264 265 266 266 266 266 268 269 270
245 245 242 243 244 243 244 245 246 248 247 247 248 250 250 252 253 255 255 256 258 259 261 260 259 258 258 258 259 259 258 259 260 262 263 263 265 267 267 268 268 269 270
244 244 243 243 244 244 244 246 247 248 247 246 248 250 251 253 254 255 255 256 258 259 260 260 259 258 259 259 260 260 260 260 261 262 263 263 264 265 266 267 268 268 269
244 244 243 244 244 244 245 246 247 247 247 247 249 251 252 253 254 255 256 257 258 258 258 260 259 258 260 259 260 261 261 262 262 262 263 263 263 264 265 266 267 268 268
244 245 245 245 244 244 244 245 247 248 247 248 249 251 253 253 254 255 256 257 258 258 259 260 260 260 260 260 261 261 261 261 262 263 263 263 263 264 265 266 267 268 268
243 245 246 246 245 243 243 245 246 247 247 247 248 251 253 254 255 255 255 257 258 259 259 259 260 261 261 262 261 260 261 261 261 262 262 263 263 264 264 265 267 268 268
244 245 247 247 246 245 245 245 247 247 247 248 250 251 253 254 254 255 256 258 259 259 260 260 261 262 262 262 262 262 261 261 262 262 263 263 265 265 265 266 267 268 268
246 246 247 247 248 247 246 248 249 248 248 250 251 252 253 253 254 256 257 258 258 259 259 260 261 262 262 262 262 262 262 263 263 263 264 265 266 266 266 266 266 267 267
249 247 248 248 248 248 248 248 248 248 248 249 250 252 253 254 256 256 257 258 259 258 258 259 262 262 262 262 262 262 262 263 264 265 266 266 267 267 267 266 266 266 267
250 249 249 249 249 249 249 249 249 248 249 249 251 252 254 255 256 255 256 258 259 258 258 260 261 261 261 261 262 262 262 263 264 265 266 267 267 269 268 267 267 267 268
252 252 252 253 253 252 252 251 251 250 250 251 253 253 254 255 254 254 256 258 258 258 258 258 259 259 260 261 262 262 263 264 265 266 267 268 268 269 268 268 268 268 269